CW1309 Weather Reports


Display with metric or nautical units.
time (UTC)temp
F
wind
direction
speed
MPH
gust
MPH
rain 1hr
in
rain 24hr
in
rain mn
in
humidity
%
barometer
mb
20260902163041 90 252 5.0 11.0 0.00 0.00 0.00 77 1016.2
20260902161540 90 232 3.0 10.0 0.00 0.00 0.00 80 1016.3
20260902160047 89 223 5.0 10.0 0.00 0.00 0.00 81 1016.2
20260902154536 88 244 8.0 14.0 0.00 0.00 0.00 82 1016.3
20260902153030 86 219 3.0 8.0 0.00 0.00 0.00 86 1016.3
20260902151526 85 246 4.0 10.0 0.00 0.00 0.00 87 1016.4
20260902150022 84 207 5.0 15.0 0.00 0.00 0.00 89 1016.5
20260902144521 83 227 8.0 15.0 0.00 0.00 0.00 91 1016.6
20260902141515 82 202 5.0 11.0 0.00 0.00 0.00 94 1016.7
20260902140013 81 232 5.0 9.0 0.00 0.00 0.00 96 1016.6
20260902134512 80 219 0.0 2.0 0.00 0.00 0.00 96 1016.7
20260902133009 79 227 0.0 0.0 0.00 0.00 0.00 96 1016.3
20260902131510 79 205 0.0 0.0 0.00 0.00 0.00 95 1016.2
20260902130007 79 199 0.0 0.0 0.00 0.00 0.00 95 1016.1
20260902124508 79 199 0.0 0.0 0.00 0.00 0.00 95 1015.9
20260902123005 79 199 0.0 0.0 0.00 0.00 0.00 95 1015.6
20260902121505 78 199 0.0 0.0 0.00 0.00 0.00 96 1015.6
20260902120005 78 199 0.0 0.0 0.00 0.00 0.00 96 1015.6
20260902114502 78 199 0.0 0.0 0.00 0.00 0.00 96 1015.6
20260902113001 79 199 0.0 0.0 0.00 0.00 0.00 96 1015.6
20260902111607 79 198 0.0 2.0 0.00 0.00 0.00 96 1015.4
20260902111500 79 198 0.0 2.0 0.00 0.00 0.00 96 1015.4
20260902110101 79 198 0.0 2.0 0.00 0.00 0.00 96 1015.3
20260902104559 79 198 0.0 3.0 0.00 0.00 0.00 95 1015.3
20260902103107 79 198 0.0 4.0 0.00 0.00 0.00 95 1015.3
20260902101556 79 205 0.0 2.0 0.00 0.00 0.00 95 1015.2
20260902100122 79 205 1.0 4.0 0.00 0.00 0.00 95 1015.3
20260902094614 79 215 0.0 4.0 0.00 0.00 0.00 94 1015.2
20260902093110 79 194 1.0 4.0 0.00 0.00 0.00 94 1015.3
20260902091553 79 196 3.0 6.0 0.00 0.00 0.00 94 1015.4
20260902090052 79 193 3.0 5.0 0.00 0.00 0.00 94 1015.3
20260902084550 80 200 2.0 4.0 0.00 0.00 0.00 93 1015.3
20260902083049 80 206 2.0 6.0 0.00 0.00 0.00 92 1015.3
20260902080049 80 213 2.0 5.0 0.00 0.00 0.00 91 1015.3
20260902074545 80 205 2.0 6.0 0.00 0.00 0.00 91 1015.3
20260902073049 80 194 2.0 5.0 0.00 0.00 0.00 90 1015.4
20260902071546 80 190 3.0 5.0 0.00 0.00 0.00 90 1015.5
20260902070042 80 174 1.0 4.0 0.00 0.00 0.00 89 1015.5
20260902064544 81 189 0.0 2.0 0.00 0.00 0.00 88 1015.6
20260902063039 81 190 1.0 6.0 0.00 0.00 0.00 88 1015.6
20260902060051 81 194 3.0 6.0 0.00 0.00 0.00 87 1015.4
20260902054541 81 177 0.0 0.0 0.00 0.00 0.00 87 1015.5
20260902053035 82 193 0.0 0.0 0.00 0.00 0.00 87 1015.4
20260902051533 82 167 0.0 0.0 0.00 0.00 0.00 87 1015.4
20260902050039 82 128 0.0 0.0 0.00 0.00 0.00 86 1015.4
20260902044531 82 112 0.0 1.0 0.00 0.00 0.00 86 1015.5
20260902043030 83 131 0.0 0.0 0.00 0.00 0.00 86 1015.4
20260902041531 83 131 0.0 0.0 0.00 0.00 0.00 85 1015.3
20260902040029 84 131 0.0 0.0 0.00 0.00 0.00 85 1015.2
20260902034529 84 131 1.0 3.0 0.00 0.00 0.00 84 1015.1
20260902033030 84 154 1.0 3.0 0.00 0.00 0.00 84 1015.0
20260902031528 85 157 1.0 5.0 0.00 0.00 0.00 83 1014.8
20260902030027 86 154 1.0 7.0 0.00 0.00 0.00 82 1014.6
20260902024536 87 163 1.0 6.0 0.00 0.00 0.00 80 1014.2
20260902023028 88 138 2.0 7.0 0.00 0.00 0.00 78 1013.7
20260902021541 89 117 2.0 10.0 0.00 0.00 0.00 76 1013.7
20260902020027 89 100 4.0 8.0 0.00 0.00 0.00 74 1013.4
20260902014533 90 113 3.0 8.0 0.00 0.00 0.00 74 1013.2
20260902013025 90 107 3.0 8.0 0.00 0.00 0.00 73 1013.2
20260902011524 91 86 3.0 8.0 0.00 0.00 0.00 72 1012.9
20260902004523 92 86 4.0 12.0 0.00 0.00 0.00 70 1012.7
20260902003022 93 57 5.0 12.0 0.00 0.00 0.00 67 1012.9
20260902001521 93 111 4.0 9.0 0.00 0.00 0.00 66 1012.9
20260902000020 93 97 2.0 9.0 0.00 0.00 0.00 67 1013.1
20260901234520 94 112 3.0 10.0 0.00 0.00 0.00 66 1013.0
20260901233039 94 98 3.0 9.0 0.00 0.00 0.00 65 1012.9
20260901231518 95 126 3.0 13.0 0.00 0.00 0.00 64 1012.9
20260901230031 96 96 5.0 11.0 0.00 0.00 0.00 64 1012.5
20260901224517 96 94 0.0 13.0 0.00 0.00 0.00 65 1012.6
20260901223016 95 83 5.0 15.0 0.00 0.00 0.00 65 1012.7
20260901221516 95 90 6.0 17.0 0.00 0.00 0.00 66 1012.8
20260901220015 95 92 9.0 21.0 0.00 0.00 0.00 66 1012.8
20260901214529 99 20 3.0 9.0 0.00 0.00 0.00 59 1012.8
20260901213014 101 83 4.0 7.0 0.00 0.00 0.00 58 1012.7
20260901211512 99 309 3.0 7.0 0.00 0.00 0.00 60 1012.7
20260901210010 99 115 3.0 7.0 0.00 0.00 0.00 60 1013.0
20260901204507 98 250 4.0 10.0 0.00 0.00 0.00 61 1013.2
20260901203004 99 242 2.0 7.0 0.00 0.00 0.00 61 1013.4
20260901201605 98 235 1.0 8.0 0.00 0.00 0.00 61 1013.7
20260901200057 98 199 4.0 9.0 0.00 0.00 0.00 62 1014.0
20260901194603 98 234 3.0 7.0 0.00 0.00 0.00 62 1014.3
20260901193051 97 280 0.0 7.0 0.00 0.00 0.00 62 1014.5
20260901191603 97 158 2.0 9.0 0.00 0.00 0.00 63 1014.8
20260901190042 96 227 3.0 10.0 0.00 0.00 0.00 65 1015.0
20260901184538 95 211 0.0 0.0 0.00 0.00 0.00 66 1015.2
20260901183036 95 199 2.0 7.0 0.00 0.00 0.00 67 1015.5
20260901181530 95 102 0.0 12.0 0.00 0.00 0.00 67 1015.8
20260901180025 94 53 3.0 6.0 0.00 0.00 0.00 70 1016.0
20260901174622 94 69 2.0 9.0 0.00 0.00 0.00 70 1016.3
20260901173018 94 166 4.0 7.0 0.00 0.00 0.00 70 1016.5
20260901171516 93 214 5.0 11.0 0.00 0.00 0.00 71 1016.7
20260901170011 93 85 2.0 5.0 0.00 0.00 0.00 72 1016.9
20260901164509 91 211 2.0 9.0 0.00 0.00 0.00 74 1017.0